Vertical_Velocity
-0 -1 2 2 2 3 2 0 1 2 -2 -5 -1 0 -1 -0 -1 0 0 0 -1 -2 -1 -0 -1 -2 -0 1 -1 -0 1 0
0 -0 3 2 2 5 2 1 3 4 1 -1 1 -1 0 -1 0 -0 0 1 -0 -2 -2 1 1 -0 -1 0 2 -3 -0 1
3 2 3 2 0 0 3 2 5 3 -0 -0 2 -2 2 0 0 -0 2 -0 0 -1 -3 -0 1 1 1 -0 3 -0 -1 -1
2 -1 3 5 1 3 2 0 2 3 1 -2 -3 0 1 1 0 -2 2 2 -1 0 -0 -2 -1 0 1 1 3 -1 2 -0
1 1 2 1 2 3 0 4 -3 2 1 1 1 0 -5 7 0 1 3 1 1 -1 -1 -3 -3 -3 1 -0 4 -2 2 1
-5 5 -0 1 3 3 4 1 3 2 -1 2 -1 1 3 16 -1 -0 3 2 -1 1 -1 -3 -2 -3 -0 -2 5 -1 1 1
-2 -2 3 1 4 2 3 3 -2 -1 1 -0 -1 -1 4 6 0 -0 1 2 -0 -0 -0 -1 -3 -2 0 -3 5 -2 -3 0
-3 -3 3 -2 2 0 5 -0 -1 1 2 -1 -0 1 4 5 -1 1 0 3 -1 -1 1 -1 -3 -2 0 -3 5 -1 -3 1
3 -5 1 -1 1 4 -1 2 -1 1 1 -3 -2 3 1 5 1 0 -0 2 -0 0 -0 2 -0 -3 1 -5 3 -1 -3 2
4 -3 -3 -1 -2 3 -1 1 -1 1 2 -2 1 0 -2 2 2 2 -0 3 -2 0 -1 2 1 -3 3 -8 7 4 -3 -1
0 1 -4 2 -2 1 2 1 -2 0 -1 -1 2 -1 1 2 0 2 -2 1 -0 0 -0 -0 2 0 -1 -4 6 6 0 -2
0 8 -3 1 4 -3 -5 -8 -3 -2 0 0 -4 -0 0 -1 2 -0 -1 -2 1 2 1 -0 3 0 -2 -3 -0 5 2 0
6 9 2 -8 -4 2 -3 -1 3 1 -0 -3 -6 -6 -5 -2 0 1 -1 2 11 -0 -3 -2 -1 -3 -3 -0 -1 3 1 2
-1 7 11 6 -6 2 -1 1 4 5 5 -0 -12 -9 -1 -2 4 3 4 -0 3 -1 1 2 4 -1 2 -3 -0 1 2 5
-5 1 1 1 1 -8 -4 -4 -7 -10 -5 1 2 -2 -0 1 -1 -1 -2 -3 -1 11 4 1 1 -2 1 0 -4 3 -3 -0
-13 -5 4 6 4 5 6 4 -6 -0 3 6 7 6 -1 -2 -2 4 2 -2 -5 -1 -3 -0 -1 0 -1 3 2 2 -4 -0
-6 -9 5 -3 9 6 -3 -10 19 3 -6 3 1 3 0 -6 -3 -1 1 5 3 -3 -4 -1 1 -4 4 -2 0 -0 -0 2
-3 -3 -1 5 -2 3 11 18 -5 21 -2 5 9 2 3 -4 -3 -2 1 1 2 2 -0 -3 2 -0 -4 -2 1 6 0 -2
7 5 -6 1 9 -5 6 10 3 -5 10 -3 13 -0 -4 4 1 1 -2 5 5 -0 0 1 -1 3 1 0 -1 -1 0 -1
6 3 -1 -3 -10 1 3 13 3 2 12 7 9 2 7 6 1 -2 -1 -2 -0 3 1 -2 -2 -5 1 -0 5 3 0 -1
Height
5819 5822 5826 5829 5832 5835 5838 5842 5844 5847 5848 5850 5851 5852 5853 5854 5855 5857 5858 5860 5861 5862 5862 5862 5862 5862 5862 5864 5865 5867 5868 5870
5814 5817 5821 5825 5828 5831 5834 5837 5839 5842 5844 5846 5847 5849 5850 5851 5852 5854 5855 5857 5859 5860 5860 5861 5861 5861 5862 5863 5865 5865 5867 5869
5809 5812 5816 5820 5823 5826 5829 5833 5836 5838 5839 5841 5843 5845 5847 5848 5850 5851 5852 5855 5856 5857 5859 5859 5860 5860 5860 5862 5864 5864 5866 5868
5802 5806 5810 5814 5818 5821 5825 5828 5830 5832 5834 5836 5838 5841 5843 5845 5846 5848 5849 5851 5853 5854 5856 5857 5857 5858 5859 5861 5864 5863 5865 5867
5796 5799 5803 5808 5812 5816 5819 5822 5824 5826 5829 5829 5832 5835 5838 5841 5842 5844 5846 5848 5849 5851 5853 5854 5855 5856 5858 5858 5862 5862 5864 5864
5788 5791 5795 5800 5805 5809 5814 5816 5818 5820 5821 5822 5826 5829 5834 5836 5838 5840 5843 5844 5845 5847 5849 5851 5852 5854 5856 5856 5861 5859 5862 5862
5779 5783 5788 5792 5798 5802 5807 5810 5812 5814 5814 5815 5819 5823 5828 5831 5834 5836 5838 5840 5841 5843 5844 5847 5849 5851 5854 5854 5860 5857 5858 5861
5773 5776 5780 5785 5792 5795 5800 5803 5805 5807 5808 5809 5813 5816 5822 5825 5828 5831 5833 5836 5836 5838 5840 5843 5845 5847 5851 5850 5857 5856 5855 5858
5767 5768 5771 5777 5784 5788 5792 5796 5799 5801 5802 5803 5806 5809 5814 5819 5823 5825 5828 5831 5832 5833 5836 5839 5841 5843 5846 5846 5853 5853 5853 5854
5761 5761 5764 5770 5776 5781 5785 5789 5792 5795 5797 5798 5801 5805 5810 5813 5817 5820 5822 5825 5827 5829 5831 5835 5837 5838 5840 5841 5848 5849 5850 5849
5757 5755 5759 5763 5768 5774 5778 5782 5785 5788 5791 5793 5795 5799 5803 5808 5811 5812 5815 5818 5822 5824 5826 5830 5832 5833 5835 5835 5840 5844 5846 5845
5749 5751 5752 5755 5759 5763 5769 5773 5777 5781 5785 5788 5789 5793 5797 5802 5804 5806 5809 5812 5816 5818 5821 5824 5826 5828 5829 5831 5833 5838 5841 5842
5739 5745 5745 5748 5751 5756 5762 5766 5770 5774 5779 5781 5783 5786 5790 5794 5798 5800 5802 5806 5810 5812 5814 5817 5819 5821 5824 5825 5827 5832 5835 5838
5727 5738 5739 5742 5746 5751 5754 5758 5761 5764 5769 5773 5776 5779 5783 5786 5791 5794 5797 5799 5802 5805 5809 5811 5813 5815 5818 5820 5822 5826 5829 5832
5718 5727 5733 5735 5738 5740 5743 5745 5749 5751 5759 5765 5769 5771 5774 5778 5783 5787 5790 5793 5795 5798 5801 5805 5807 5808 5812 5814 5815 5819 5821 5823
5711 5713 5724 5729 5728 5729 5732 5737 5741 5748 5753 5757 5760 5764 5766 5769 5772 5779 5783 5785 5787 5791 5794 5797 5799 5802 5805 5808 5811 5814 5813 5816
5702 5705 5710 5718 5720 5720 5720 5722 5725 5731 5738 5746 5748 5754 5756 5759 5762 5769 5773 5777 5780 5781 5785 5788 5791 5793 5796 5799 5804 5806 5807 5809
5694 5697 5700 5704 5709 5711 5712 5700 5706 5716 5727 5734 5738 5742 5747 5749 5754 5760 5766 5768 5771 5774 5776 5778 5782 5785 5787 5790 5796 5799 5801 5802
5686 5689 5693 5694 5697 5702 5702 5705 5705 5709 5714 5725 5726 5731 5734 5740 5744 5746 5753 5760 5763 5765 5767 5768 5772 5776 5779 5782 5785 5790 5792 5793
5673 5678 5682 5686 5687 5689 5696 5699 5702 5704 5707 5711 5716 5720 5726 5730 5733 5736 5740 5747 5752 5756 5758 5760 5761 5764 5768 5771 5774 5779 5782 5785